WY1U-1 Wallingford CT US current weather conditions

sailwx.info

Wind from 356 at 2 knots gusting 3

Air temperature -2.2° C
Dewpoint -13.4° C

Last reported at 2019-Dec-07 10:00 UTC.
Time now 2019-Dec-07 11:09 UTC

Location: N 41°29' W 072°50'.
View on Google Maps.

See reports from other nearby stations

  
Tides and Currents Weather Stations Pressure Air Temp Water Temp Dewpoint Dewpoint Depression Visibility Wind Speed Wind Dir Waves Ship Positions
date/time (UTC)wind fromknots sea level pressurealtimeterstation pressurevisibilityair tempwater tempwave heightnotes
2019-Dec-07 10:00 356 2 gusting 3 -2.2
2019-Dec-07 09:44 356 3 gusting 4 -2.2
2019-Dec-07 09:36 355 4 gusting 5 -2.2
2019-Dec-07 09:28 350 4 gusting 5 -2.2
2019-Dec-07 09:20 348 4 gusting 4 -2.2
2019-Dec-07 09:12 352 4 gusting 4 -2.2
2019-Dec-07 09:04 353 4 gusting 6 -1.7
2019-Dec-07 08:56 349 5 gusting 5 -1.7
2019-Dec-07 08:48 354 5 gusting 6 -1.7
2019-Dec-07 08:32 351 5 gusting 8 -1.7
2019-Dec-07 08:24 351 5 gusting 6 -1.7
2019-Dec-07 08:16 343 5 gusting 6 -1.1
2019-Dec-07 08:08 340 5 gusting 6 -1.1
2019-Dec-07 08:00 343 4 gusting 6 -1.1
2019-Dec-07 07:52 339 4 gusting 5 -1.1
2019-Dec-07 07:44 346 4 gusting 6 -1.1
2019-Dec-07 07:36 345 4 gusting 6 -1.1
2019-Dec-07 07:28 347 4 gusting 6 -1.1
2019-Dec-07 07:20 343 3 gusting 4 -1.1
2019-Dec-07 07:12 339 3 gusting 5 -0.6
2019-Dec-07 07:04 347 4 gusting 6 -0.6
2019-Dec-07 06:56 339 3 gusting 6 -0.6
2019-Dec-07 06:48 340 3 gusting 4 -0.6
2019-Dec-07 06:40 345 3 gusting 4 -0.6
2019-Dec-07 06:32 346 4 gusting 6 -0.6
2019-Dec-07 06:24 347 3 gusting 5 -0.0
2019-Dec-07 06:16 345 3 gusting 6 -0.0
2019-Dec-07 06:08 345 3 gusting 4 -0.0
2019-Dec-07 06:00 344 3 gusting 4 -0.0
2019-Dec-07 05:52 352 3 gusting 3 -0.0
2019-Dec-07 05:44 344 3 gusting 5 -0.0
2019-Dec-07 05:36 327 3 gusting 3 -0.0
2019-Dec-07 05:28 337 2 gusting 3 0.6
2019-Dec-07 05:20 339 2 gusting 3 0.6
2019-Dec-07 05:12 339 3 gusting 3 0.6
2019-Dec-07 05:04 345 3 gusting 5 0.6
2019-Dec-07 04:56 343 3 gusting 6 0.6
2019-Dec-07 04:48 343 3 gusting 5 0.6
2019-Dec-07 04:40 350 3 gusting 4 0.6
2019-Dec-07 04:32 349 3 gusting 4 0.6
2019-Dec-07 04:24 351 3 gusting 5 1.1
2019-Dec-07 04:16 354 4 gusting 5 1.1
2019-Dec-07 04:00 356 2 gusting 4 1.1
2019-Dec-07 03:52 335 3 gusting 2 1.7
2019-Dec-07 03:44 353 1 gusting 5 1.7
2019-Dec-07 03:36 342 1 gusting 3 1.7
2019-Dec-07 03:28 351 3 gusting 3 1.7
2019-Dec-07 03:20 356 3 gusting 7 1.7
2019-Dec-07 03:12 354 4 gusting 5 2.2
2019-Dec-07 03:04 352 4 gusting 6 2.2
2019-Dec-07 02:56 355 4 gusting 9 2.8
2019-Dec-07 02:48 355 4 gusting 6 2.8
2019-Dec-07 02:40 351 4 gusting 4 3.3
2019-Dec-07 02:32 352 5 gusting 6 3.3
2019-Dec-07 02:24 349 5 gusting 6 3.9
2019-Dec-07 02:16 353 5 gusting 6 3.9
2019-Dec-07 02:08 352 4 gusting 6 4.4
2019-Dec-07 02:00 338 3 gusting 4 4.4
2019-Dec-07 01:52 294 2 gusting 2 4.4
2019-Dec-07 01:44 271 1 gusting 3 4.4
2019-Dec-07 01:36 270 4.4
2019-Dec-07 01:28 260 5.0
2019-Dec-07 01:20 256 5.0
2019-Dec-07 01:12 264 5.0
2019-Dec-07 01:04 257 5.0
2019-Dec-07 00:56 266 5.6
2019-Dec-07 00:48 280 5.6
2019-Dec-07 00:40 267 5.6
2019-Dec-07 00:34 250 5.6
2019-Dec-07 00:24 263 5.6
2019-Dec-07 00:16 264 5.0
2019-Dec-07 00:08 246 5.0
2019-Dec-07 00:00 218 5.0
2019-Dec-06 23:52 231 5.0
2019-Dec-06 23:44 208 5.0
2019-Dec-06 23:36 203 5.0
2019-Dec-06 23:28 161 4.4
2019-Dec-06 23:20 176 4.4
2019-Dec-06 23:12 179 4.4
2019-Dec-06 23:04 189 5.0
2019-Dec-06 22:56 197 5.0
2019-Dec-06 22:48 275 5.0
2019-Dec-06 22:40 300 5.0
2019-Dec-06 22:32 300 5.0
2019-Dec-06 22:24 300 5.0
2019-Dec-06 22:17 300 5.0
2019-Dec-06 22:08 287 5.0
2019-Dec-06 21:52 205 5.0
2019-Dec-06 21:44 186 5.0
2019-Dec-06 21:36 168 4.4
2019-Dec-06 21:28 169 4.4
2019-Dec-06 21:20 178 4.4
2019-Dec-06 21:12 171 4.4
2019-Dec-06 21:04 168 4.4
2019-Dec-06 20:56 162 5.0
2019-Dec-06 20:48 163 5.0
2019-Dec-06 20:40 165 5.0
2019-Dec-06 20:32 162 5.0
2019-Dec-06 20:24 162 5.0
2019-Dec-06 20:16 167 4.4
2019-Dec-06 20:08 169 4.4
2019-Dec-06 20:00 165 5.0
2019-Dec-06 19:52 171 5.0
2019-Dec-06 19:44 177 5.0
2019-Dec-06 19:36 165 5.0
2019-Dec-06 19:28 162 5.0
2019-Dec-06 19:20 163 5.0
2019-Dec-06 19:12 164 5 5.0
2019-Dec-06 19:04 167 6 gusting 10 4.4
2019-Dec-06 18:56 165 7 gusting 8 4.4
2019-Dec-06 18:48 162 7 gusting 13 4.4
2019-Dec-06 18:40 163 7 gusting 8 4.4
2019-Dec-06 18:32 169 7 gusting 14 4.4
2019-Dec-06 18:24 169 6 gusting 9 4.4
2019-Dec-06 18:16 166 6 gusting 7 4.4
2019-Dec-06 18:08 165 6 gusting 6 4.4
2019-Dec-06 18:00 158 6 gusting 7 3.9
2019-Dec-06 17:52 159 5 gusting 6 4.4
2019-Dec-06 17:44 166 5 gusting 7 3.9
2019-Dec-06 17:36 163 6 gusting 6 3.9
2019-Dec-06 17:28 153 6 gusting 7 3.9
2019-Dec-06 17:20 163 6 gusting 9 3.9
2019-Dec-06 17:12 160 6 gusting 6 3.9
2019-Dec-06 17:04 168 6 gusting 8 3.9
2019-Dec-06 16:56 164 6 gusting 7 3.9
2019-Dec-06 16:48 164 5 gusting 4 3.9
2019-Dec-06 16:40 170 6 gusting 6 3.9
2019-Dec-06 16:32 168 6 gusting 6 3.9
2019-Dec-06 16:24 159 5 gusting 6 3.3
2019-Dec-06 16:16 167 5 gusting 6 3.3
2019-Dec-06 16:08 176 5 gusting 6 2.8
2019-Dec-06 16:00 182 5 gusting 4 2.8
2019-Dec-06 15:44 164 6 gusting 6 2.2
2019-Dec-06 15:36 169 5 gusting 4 2.2
2019-Dec-06 15:28 164 5 gusting 6 2.2
2019-Dec-06 15:20 169 5 gusting 6 1.7
2019-Dec-06 15:12 180 3 gusting 4 1.7
2019-Dec-06 15:04 177 5 gusting 6 1.7
2019-Dec-06 14:56 190 4 gusting 9 1.7
2019-Dec-06 14:48 174 4 gusting 4 1.1
2019-Dec-06 14:40 163 5 gusting 6 1.1
2019-Dec-06 14:32 162 4 gusting 6 1.1
2019-Dec-06 14:24 162 4 gusting 5 0.6
2019-Dec-06 14:16 163 4 gusting 4 0.6
2019-Dec-06 14:08 157 4 gusting 5 0.6
2019-Dec-06 14:00 161 4 gusting 5 0.6
2019-Dec-06 13:52 165 4 gusting 4 0.6
2019-Dec-06 13:44 164 4 gusting 4 -0.0
2019-Dec-06 13:36 157 3 gusting 5 -0.0
2019-Dec-06 13:28 156 4 gusting 4 -0.0
2019-Dec-06 13:20 152 3 gusting 5 -0.6
2019-Dec-06 13:12 153 3 gusting 3 -0.6
2019-Dec-06 13:04 146 3 gusting 3 -0.6
2019-Dec-06 12:56 155 3 gusting 3 -0.6
2019-Dec-06 12:48 162 1 gusting 3 -0.6
2019-Dec-06 12:40 164 1 -0.6
2019-Dec-06 12:32 237 0 gusting 3 -1.1
2019-Dec-06 12:24 254 -1.1
2019-Dec-06 12:16 254 1 -1.1
2019-Dec-06 12:08 254 2 gusting 3 -1.1
2019-Dec-06 12:00 254 2 gusting 2 -1.1
2019-Dec-06 11:52 254 2 gusting 3 -1.1
2019-Dec-06 11:44 254 0 gusting 2 -1.7
2019-Dec-06 11:36 254 -1.7
2019-Dec-06 11:20 254 -1.7
2019-Dec-06 11:12 254 -1.7
2019-Dec-06 11:04 254 -1.7
2019-Dec-06 10:56 254 -1.7
2019-Dec-06 10:48 255 -1.7
2019-Dec-06 10:40 255 -1.7
2019-Dec-06 10:32 255 -2.2
2019-Dec-06 10:24 245 0 -2.2
2019-Dec-06 10:16 233 -2.2
2019-Dec-06 10:08 233 -2.2
2019-Dec-06 10:00 233 -2.8
2019-Dec-06 09:52 233 -2.8
2019-Dec-06 09:44 233 -2.8
2019-Dec-06 09:36 233 -2.8
2019-Dec-06 09:28 243 0 -2.8
2019-Dec-06 09:20 257 1 -2.8
2019-Dec-06 09:12 199 -2.8
2019-Dec-06 09:04 199 -2.8
2019-Dec-06 08:56 199 -2.8
2019-Dec-06 08:48 199 -2.8
2019-Dec-06 08:40 180 -2.8
2019-Dec-06 08:32 166 0 -2.8
2019-Dec-06 08:24 166 -2.8
2019-Dec-06 08:16 166 -2.2
2019-Dec-06 08:08 166 -2.2
2019-Dec-06 08:00 166 -2.2
2019-Dec-06 07:52 166 1 -2.2
2019-Dec-06 07:44 250 0 gusting 3 -2.2
2019-Dec-06 07:36 283 -2.2
2019-Dec-06 07:28 283 -2.2
2019-Dec-06 07:20 283 -1.7
2019-Dec-06 07:12 283 -1.7
2019-Dec-06 07:04 283 -1.7
2019-Dec-06 06:56 283 -1.7
2019-Dec-06 06:48 283 -1.7
2019-Dec-06 06:40 283 -1.1
2019-Dec-06 06:32 283 -1.1
2019-Dec-06 06:24 283 -1.1
2019-Dec-06 06:16 283 -1.1
2019-Dec-06 06:08 283 -0.6
2019-Dec-06 06:00 283 -0.6
2019-Dec-06 05:52 283 -0.0
2019-Dec-06 05:44 283 -0.0
2019-Dec-06 05:36 283 -0.0
2019-Dec-06 05:28 283 -0.0
2019-Dec-06 05:20 283 -0.0
2019-Dec-06 05:12 284 0 -0.0
2019-Dec-06 05:04 279 1 -0.0
2019-Dec-06 04:56 272 1 gusting 3 -0.0
2019-Dec-06 04:48 268 1 gusting 3 -0.0
2019-Dec-06 04:40 257 2 gusting 3 -0.0
2019-Dec-06 04:32 228 2 gusting 3 -0.0
2019-Dec-06 04:24 261 3 gusting 4 -0.0
2019-Dec-06 04:16 276 3 gusting 4 -0.0
2019-Dec-06 04:08 260 1 gusting 5 0.6
2019-Dec-06 04:00 248 2 gusting 3 0.6
2019-Dec-06 03:52 237 3 gusting 4 0.6
2019-Dec-06 03:44 250 1 gusting 5 0.6
2019-Dec-06 03:28 293 1 gusting 4 0.6
2019-Dec-06 03:20 281 2 gusting 2 0.6
2019-Dec-06 03:12 303 2 gusting 4 0.6
2019-Dec-06 03:04 287 2 gusting 3 0.6
2019-Dec-06 02:56 263 2 gusting 4 0.6
2019-Dec-06 02:40 320 3 gusting 5 0.6
2019-Dec-06 02:32 311 2 gusting 4 0.6
2019-Dec-06 02:24 288 1 gusting 3 0.6
2019-Dec-06 02:16 275 0 gusting 3 0.6
2019-Dec-06 02:08 281 0 0.6
2019-Dec-06 02:00 296 2 gusting 3 0.6
2019-Dec-06 01:52 276 3 gusting 3 0.6
2019-Dec-06 01:44 295 3 gusting 5 0.6
2019-Dec-06 01:36 276 3 gusting 4 1.1
2019-Dec-06 01:28 276 3 gusting 6 1.1
2019-Dec-06 01:20 257 3 gusting 4 1.1
2019-Dec-06 01:12 262 3 gusting 5 1.1
2019-Dec-06 01:04 269 1 gusting 3 1.1
2019-Dec-06 00:56 267 0 1.1
2019-Dec-06 00:48 264 1.1
2019-Dec-06 00:40 266 0 gusting 2 1.1
2019-Dec-06 00:32 288 2 gusting 4 1.1
2019-Dec-06 00:24 270 3 gusting 4 1.1
2019-Dec-06 00:16 266 3 gusting 9 1.1
2019-Dec-06 00:10 274 4 gusting 6 1.1
2019-Dec-06 00:08 274 4 gusting 6 1.1
2019-Dec-06 00:00 269 4 gusting 5 1.1
2019-Dec-05 23:46 304 1 gusting 3 1.1
2019-Dec-05 23:44 304 1 gusting 3 1.1
2019-Dec-05 23:36 240 0 gusting 3 1.1
2019-Dec-05 23:28 182 1 gusting 3 1.1
2019-Dec-05 23:20 265 1 gusting 3 1.1
2019-Dec-05 23:12 244 1 gusting 2 1.1
2019-Dec-05 23:04 323 2 gusting 2 1.1
2019-Dec-05 22:56 347 1 gusting 4 1.1
2019-Dec-05 22:48 007 0 gusting 3 1.1
2019-Dec-05 22:40 006 2 gusting 2 1.1
2019-Dec-05 22:32 001 3 gusting 2 1.7
2019-Dec-05 22:24 338 2 gusting 3 1.7
2019-Dec-05 22:16 299 2 gusting 4 1.7
2019-Dec-05 22:08 310 3 gusting 3 1.7
2019-Dec-05 22:00 294 4 gusting 4 2.2
2019-Dec-05 21:52 269 5 gusting 10 2.2
2019-Dec-05 21:44 266 4 gusting 6 2.2
2019-Dec-05 21:36 262 4 gusting 6 2.8
2019-Dec-05 21:28 265 4 gusting 5 2.8
2019-Dec-05 21:20 265 5 gusting 11 2.8
2019-Dec-05 21:12 264 3 gusting 6 2.8
2019-Dec-05 21:04 290 3 gusting 5 2.8
2019-Dec-05 20:56 286 4 gusting 7 2.8
2019-Dec-05 20:48 332 3 gusting 4 2.8
2019-Dec-05 20:40 300 3 gusting 4 2.8
2019-Dec-05 20:32 332 3 gusting 5 3.3
2019-Dec-05 20:24 347 3 gusting 3 3.3
2019-Dec-05 20:16 309 3 gusting 6 3.3
2019-Dec-05 20:08 311 3 gusting 3 3.3
2019-Dec-05 20:00 308 3 gusting 3 3.9
2019-Dec-05 19:52 320 4 gusting 6 3.9
2019-Dec-05 19:44 324 4 gusting 4 3.9
2019-Dec-05 19:36 321 4 gusting 6 3.9
2019-Dec-05 19:28 324 3 gusting 4 3.3
2019-Dec-05 19:20 317 3 gusting 5 3.3
2019-Dec-05 19:12 323 3 gusting 4 2.8
2019-Dec-05 19:04 281 1 gusting 5 2.8
2019-Dec-05 18:56 341 2 gusting 3 2.8
2019-Dec-05 18:40 326 3 gusting 4 2.8
2019-Dec-05 18:32 305 2 gusting 5 2.8
2019-Dec-05 18:24 270 0 gusting 3 2.8
2019-Dec-05 18:16 339 0 gusting 4 2.8
2019-Dec-05 18:08 333 2 gusting 3 2.8
2019-Dec-05 18:00 296 2 gusting 3 2.8
2019-Dec-05 17:52 254 3 gusting 6 2.8
2019-Dec-05 17:44 273 3 gusting 5 2.8
2019-Dec-05 17:36 261 3 gusting 5 3.3
2019-Dec-05 17:28 264 4 gusting 5 3.3
2019-Dec-05 17:20 265 3 gusting 6 3.3
2019-Dec-05 17:12 265 3 gusting 4 3.9
2019-Dec-05 17:04 263 3 gusting 4 3.9
2019-Dec-05 16:56 244 3 gusting 4 3.9
2019-Dec-05 16:48 255 1 gusting 3 3.3
2019-Dec-05 16:40 270 3.3
2019-Dec-05 16:32 274 3.3
2019-Dec-05 16:24 277 3.3
2019-Dec-05 16:16 289 0 3.3
2019-Dec-05 16:08 271 2 gusting 3 3.3
2019-Dec-05 16:00 270 1 gusting 3 3.3
2019-Dec-05 15:52 263 1 gusting 3 3.3
2019-Dec-05 15:44 273 1 3.3
2019-Dec-05 15:36 351 2 gusting 3 3.3
2019-Dec-05 15:28 353 3 gusting 4 3.3
2019-Dec-05 15:12 339 2 gusting 2 3.3
2019-Dec-05 15:04 308 2 gusting 2 3.3
2019-Dec-05 14:56 271 3 gusting 5 2.8
2019-Dec-05 14:48 275 3 gusting 4 2.8
2019-Dec-05 14:40 279 3 gusting 5 2.8
2019-Dec-05 14:32 268 5 gusting 4 2.8
2019-Dec-05 14:24 274 5 gusting 6 2.8
2019-Dec-05 14:16 278 4 gusting 8 2.8
2019-Dec-05 14:08 287 4 gusting 6 2.2
2019-Dec-05 14:00 275 4 gusting 5 2.2
2019-Dec-05 13:52 260 3 gusting 6 1.7
2019-Dec-05 13:44 256 3 gusting 6 1.7
2019-Dec-05 13:36 263 3 gusting 4 1.7
2019-Dec-05 13:28 264 2 gusting 6 1.1
2019-Dec-05 13:20 270 1 gusting 4 1.1
2019-Dec-05 13:12 286 0 0.6
2019-Dec-05 13:04 166 0 gusting 4 0.6
2019-Dec-05 12:56 214 0.6
2019-Dec-05 12:48 214 0.6
2019-Dec-05 12:40 214 0.6
2019-Dec-05 12:32 236 0 0.6
2019-Dec-05 12:24 267 0.6
2019-Dec-05 12:16 285 0 0.6
2019-Dec-05 12:08 311 0.6
2019-Dec-05 12:00 311 0.6
2019-Dec-05 11:52 311 0.6
2019-Dec-05 11:44 311 0.6
2019-Dec-05 11:36 311 0.6
2019-Dec-05 11:28 311 0.6
2019-Dec-05 11:20 311 0.6
2019-Dec-05 11:12 312 0 0.6
2019-Dec-05 11:04 287 1 gusting 3 0.6